Location: Invercargill
(46.4000°S, 168.3500°E)
Time: 10:52:36
(UTC+12:00)

Cosmos 1242 Rocket - Pass Details

Date: 14 May 2021
Orbit: 445 x 484 km, 81.2° (Epoch: 15 June)

Event Time Altitude Azimuth Distance (km) Brightness Sun altitude
Rises 19:29:28 0° 190° (S) 2,597 6.3 -21.3°
Reaches altitude 10° 19:31:36 10° 189° (S) 1,709 5.4 -21.7°
Enters shadow 19:33:36 30° 185° (S) 921 3.9 -22.0°
